Погода Балкашино

Погода Балкашино : погода сейчас, прогноз погоды и архив. Всё, что Вы хотите узнать о погоде Балкашино!

Поиск расширенной информации на нашем сайте:

Другие новости

Новости СМИ2

Главная страница сайта

Новости сайта

02.10.2013

Напоминаем, что на нашем новом сайте вы можете получить высокодетализированные прогнозы погоды по пунктам России, СНГ и мира (включающие важные для авиации метеовеличины, такие как направление и скорость ветра, видимость, явления погоды, количество и форма облачности, нижняя и верхняя граница облачности), а также ознакомиться с разнообразными материалами по авиационной метеорологии и подборкой полезных ссылок на эту тему.

Сайт Метеоцентр.Азия посвящён разработке технологий оптимизации авиаметеорологического обслуживания, включая проектирование и перспективное создание нескольких автоматизированных авиаметеорологических систем:
- система выпуска высокодетальных прогностических карт явлений погоды для нижнего воздушного пространства по России и ближнему зарубежью;
- система верификации прогнозов TAF (выпускаемых синоптиками официальных АМСГ РФ и ближнего зарубежья) и AUTOTAF (выпускаемых сайтом Метеоцентр.Азия) - выявление ошибок, онлайн-сопоставление с фактической погодой METAR, автоматическое внесение коррективов в прогнозы при резком отклонении фактической погоды от прогноза, подсчёт оправдываемости прогнозов по элементам и в целом;
- система обработки, анализа и отображения авиаметеорологической информации для применения провайдерами метеорологической информации.

Рекомендуем: Кафельная плитка цена интернет магазин плитка.

Погода Балкашино - сегодня

Время (UTC), дата Ветер
(°,м/с) 
Видим.   Явления Облачность Т
(°С)
Тd
(°С)
f(%) Тe
(°С)
Pmin
(гПа)
dP
(гПа)
Po
(мм)
O2
(г/м3)
Тmin Tmax R s Состояние
почвы
06 19.06.17 230 (ЮЗ) 10-16  20000 м    8/8 1000 м 
[Cu med, cong]
+23.9 +7.2 34 +24  1005.7  -0.8  721  266  +9.8         
09 19.06.17 230 (ЮЗ) 20000 м    8/8 1000 м 
[Cu med, cong]
+25.6 +3.6 24 +26  1005.2  -0.3  721  265           
12 19.06.17 270 (З) 20000 м    10/4 1000 м верхняя 
[Cu med, cong|Ci]
+25.3 +4.6 26 +25  1004.6  -0.6  720  265           
15 19.06.17 270 (З) 20000 м    8/5 600 м верхняя 
[Sc|Ci fib]
+21.9 +6.5 37 +22  1004.7  -0.4  720  267    +25.7       
18 19.06.17 тихо ()   н/о    6/3 600 м верхняя 
[Sc|Ci fib]
+13.4 +6.2 62 +13  1006.2  0.2  720  275    +25.7       
21 19.06.17 тихо ()   н/о    9/9 600 м 
[Sc]
+13 +7.2 68 +13  1005.8  -0.5  720  276           
00 20.06.17 тихо ()   20000 м    10/4 600 м верхняя 
[Sc|Cs]
+11.1 +7.2 77 +11  1005.7  -0.4  719  277           
06 20.06.17 230 (ЮЗ) 20000 м    9/8 1000 м верхняя 
[Cu med, cong|Ci sp]
+24.1 +8 36 +24  1002.9  -0.8  719  265  +10.3         
09 20.06.17 170 (Ю) 20000 м  в посл. час ливневой дождь{гроза}  9/9 600 м кучево-дожд. 
[Cb cap]
+21.4 +12 55 +26  1002.8  -0.4  719  266           
21 20.06.17 тихо ()   н/о    3/0 верхняя 
[Ci fib]
+11 +9.6 91 +12  1003.9  -0.3  718  276           
00 21.06.17 тихо ()   20000 м    3/0 верхняя 
[Ci fib]
+10.6 +9.2 91 +12  1004.1  0.2  718  277           
06 21.06.17 230 (ЮЗ) 20000 м    8/8 600 м верхняя 
[Sc|Cc]
+22.9 +9.7 43 +25  1001.6  -0.7  718  265  +10         
09 21.06.17 230 (ЮЗ) 20000 м  гроза, ливневой дождь  9/9 600 м кучево-дожд. 
[Cb cap]
+21.2 +13.9 63 +29  1001.4  -0.4  718  265           
12 21.06.17 230 (ЮЗ) 20000 м  в посл. час гроза{ливн. осадки}  8/8 600 м кучево-дожд. 
[Cb cap]
+22 +13.1 57 +29  1000.6  -0.7  717  265           
18 21.06.17 270 (З) н/о  зарница  6/4 600 м кучево-дожд., верхняя 
[Cb cap|Ci sp]
+13.6 +7.9 68 +14  1004.8  1.6  719  275    +23.1     
21 21.06.17 тихо ()   н/о    3/1 600 м верхняя 
[Sc|Ci fib]
+8.8 +8.2 96 +9  1006  0.4  719  279           
00 22.06.17 тихо ()   20000 м    ясно 
+8.6 +7.8 95 +9  1006.7  0.6  720  280           
06 22.06.17 270 (З) 20000 м    8/8 600 м 
[Cu med, cong]
+20.8 +8 44 +21  1006.6  0.5  721  269  +7         
09 22.06.17 310 (СЗ) 20000 м    6/4 600 м верхняя 
[Cu med, cong|Ci sp]
+23 +10.1 44 +25  1005.8  -0.4  721  266           
12 22.06.17 330 (СЗ) 20000 м    8/3 600 м верхняя 
[Cu med, cong|Ci sp]
+23.9 +9.5 40 +25  1005.6  -0.1  721  265           
15 22.06.17 тихо ()   20000 м    10/0 верхняя 
[Ci]
+21.4 +14 63 +29  1006.5  0.6  721  267    +24.4       
18 22.06.17 тихо ()   н/о    3/0 верхняя 
[Ci fib]
+14.8 +11.1 78 +18  1007.5  -0.1  721  273    +24.4       
21 22.06.17 тихо ()   н/о    4/0 верхняя 
[Ci fib]
+11 +10 94 +13  1008.3  0.1  721  277           
00 23.06.17 тихо ()   20000 м    8/0 верхняя 
[Cc]
+11.7 +10.8 94 +15  1007.6  -0.5  721  276           
06 23.06.17 090 (В) 20000 м    10/3 600 м средняя 
[Sc|Ac As]
+21.2 +12.1 56 +26  1004.7  -1.1  720  267  +10.8         
Время (UTC), дата Ветер
(°,м/с) 
Видим.   Явления Облачность Т
(°С)
Тd
(°С)
f(%) Тe
(°С)
Pmin
(гПа)
dP
(гПа)
Po
(мм)
O2
(г/м3)
Тmin Tmax R s Состояние
почвы

Для получения пояснительной информации подведите курсор к названию столбца.

ПОГОДА Балкашино - архив

Всё, что Вы хотите узнать о погоде Балкашино - удобно и подробно!

Выберите нужную дату (начиная с 1 января 2015* года) и нажмите кнопку "Найти".
Будут отображены архивные сводки погоды по пункту Балкашино, начиная с указанной даты.


Отображать данные в формате CSV (для использования в таблицах Excel)


Внимание! Наш архив погоды предназначен исключительно для личного некоммерческого использования в познавательных целях. Если Вам необходимы официальные справки о состоянии погоды (для производственных, юридических, коммерческих и т.п. целей), обращайтесь в органы Росгидромета.

*Примечание: данная дата относится к архиву по метеостанциям СССР (Россия, СНГ, Балтия).
Архив по метеостанциям Зарубежной Европы и Азии (кроме Китая) хранится 10 дней, по другим регионам земного шара (Китай, Африка, Америка, Австралия, Океания) - 1 день.

Балкашино - район местоположения метеостанции


Название, широта, долгота, высота метеостанции:
Балкашино 52.5°ш. 68.8°д. 398 м над ур. моря [Казахстан]

Дополнительная информация

В oтличие oт бoльшинства пoгoдных сайтoв мы публикуем пoдрoбную метеoинфoрмацию в детальнoм прoфессиoнальнoм фoрмате.

Характеристики температуры и влажнoсти вoздуха измеряются на высoте 2 м в тени вдали oт зданий и деревьев.
Скoрoсть ветра измеряется на высoте 10 м (на урoвне рoста челoвека скoрoсть ветра ниже в 1.5-2 раза). Если метеoстанция нахoдится в гoрoде или в лесу, тo скoрoсть ветра занижена на 2-4 м/с пo сравнению с oткрытым местoм. Скoрoсть ветра над акватoриями крупных рек и oзёр, а также на вершинах хoлмoв на 2-5 м/с выше, чем в oбычных услoвиях.
Атмoсфернoе давление в разных тoчках местнoсти мoжет значительнo oтличаться oт давления на метеoстанции, в зависимoсти oт услoвий рельефа (при пoдъёме на 10 м давление пoнижается примернo на 1 мм рт.ст.).